M I D A S
Marine Information and Data Acquisition System
Tripno 2286 of the Zeeleeuw from 2012-04-10 06:58:58 to 2012-04-10 14:41:08
Back to CruiseResearch ActivitiesStationsMapUnderway DataData graphs

EquipmentUnitsComments
TimeDGPSUTC
LatitudeDGPSDM.mWGS84
LongitudeDGPSDM.mWGS84
SpeedMeteo Stationm/sRelative wind speed
DirectionMeteo StationdegRelative wind direction
TemperatureMeteo Stationdeg CelciusAir temperature
PressureMeteo StationPaAtmospheric pressure
HumidityMeteo Station%Relative humidity
Missing or incorrect values are displayed as -999
Metereological data collected by the RV Zeeleeuw from 2012-04-10 06:36:12 to 2012-04-10 14:52:26
                                                                                    Next 1000 lines
Time Latitude Longitude Speed Direction Temperature Pressure Humidity
2012-04-10 06:36:23 51°13.634 2°56.019 0.1 28 9.1 99070 49
2012-04-10 06:36:28 51°13.634 2°56.017 0.1 30 9.1 99070 49
2012-04-10 06:36:33 51°13.634 2°56.017 -999 22 9.1 99070 49
2012-04-10 06:36:37 51°13.634 2°56.017 -999 16 9.1 99070 49
2012-04-10 06:36:42 51°13.634 2°56.016 0.1 13 9.1 99070 49
2012-04-10 06:36:47 51°13.634 2°56.016 0.1 9 9.1 99070 49
2012-04-10 06:36:52 51°13.634 2°56.015 2.3 15 9.1 99070 49
2012-04-10 06:36:57 51°13.635 2°56.016 1.4 18 9.1 99070 49
2012-04-10 06:37:02 51°13.635 2°56.016 0.6 6 9.1 99070 48
2012-04-10 06:37:07 51°13.635 2°56.016 0.2 17 9.1 99070 48
2012-04-10 06:37:12 51°13.635 2°56.016 0.3 12 9.1 99070 49
2012-04-10 06:37:17 51°13.635 2°56.016 0.2 -999 9.1 99070 49
2012-04-10 06:37:23 51°13.635 2°56.016 0.1 20 9.1 99070 49
2012-04-10 06:37:28 51°13.635 2°56.016 -999 21 9.1 99070 49
2012-04-10 06:37:33 51°13.635 2°56.016 -999 33 9.1 99070 49
2012-04-10 06:37:38 51°13.635 2°56.016 -999 31 9.1 99070 49
2012-04-10 06:37:43 51°13.635 2°56.016 -999 23 9.1 99070 49
2012-04-10 06:37:48 51°13.635 2°56.016 -999 22 9.1 99070 49
2012-04-10 06:37:53 51°13.635 2°56.016 -999 35 9.1 99070 49
2012-04-10 06:37:58 51°13.635 2°56.016 -999 18 9.1 99070 49
2012-04-10 06:38:03 51°13.635 2°56.016 -999 25 9.1 99070 49
2012-04-10 06:38:08 51°13.635 2°56.016 -999 33 9.1 99070 49
2012-04-10 06:38:12 51°13.635 2°56.015 -999 23 9.1 99070 49
2012-04-10 06:38:17 51°13.635 2°56.016 -999 -999 9.1 99070 49
2012-04-10 06:38:22 51°13.635 2°56.016 -999 36 9.1 99070 49
2012-04-10 06:38:27 51°13.635 2°56.016 -999 39 9.1 99070 49
2012-04-10 06:38:32 51°13.635 2°56.016 -999 40 9.1 99070 49
2012-04-10 06:38:37 51°13.636 2°56.015 -999 40 9.1 99070 49
2012-04-10 06:38:43 51°13.636 2°56.015 -999 23 9.1 99070 49
2012-04-10 06:38:47 51°13.636 2°56.015 0.3 25 9.1 99070 49
2012-04-10 06:38:53 51°13.636 2°56.015 0.1 -999 9.1 99070 49
2012-04-10 06:38:58 51°13.636 2°56.015 0.1 1 9.1 99070 49
2012-04-10 06:39:02 51°13.636 2°56.015 -999 11 9.1 99070 48
2012-04-10 06:39:07 51°13.636 2°56.015 0.1 9 9.1 99070 48
2012-04-10 06:39:13 51°13.635 2°56.015 0.1 15 9.1 99070 49
2012-04-10 06:39:17 51°13.635 2°56.015 0.1 15 9.1 99070 49
2012-04-10 06:39:23 51°13.635 2°56.015 -999 30 9.1 99070 49
2012-04-10 06:39:28 51°13.635 2°56.014 -999 36 9.1 99070 49
2012-04-10 06:39:32 51°13.635 2°56.014 0.1 40 9.1 99070 49
2012-04-10 06:39:37 51°13.635 2°56.014 0.1 35 9.1 99070 49
2012-04-10 06:39:42 51°13.635 2°56.014 0.6 29 9.1 99070 48
2012-04-10 06:39:47 51°13.635 2°56.014 0.2 21 9.1 99070 48
2012-04-10 06:39:52 51°13.635 2°56.014 0.1 30 9.2 99080 49
2012-04-10 06:39:57 51°13.635 2°56.014 -999 78 9.2 99080 49
2012-04-10 06:40:02 51°13.635 2°56.014 -999 32 9.1 99080 49
2012-04-10 06:40:07 51°13.635 2°56.014 -999 35 9.1 99080 49
2012-04-10 06:40:12 51°13.635 2°56.014 0.4 36 9.1 99080 49
2012-04-10 06:40:18 51°13.635 2°56.014 0.1 32 9.1 99080 49
2012-04-10 06:40:23 51°13.635 2°56.014 0.1 18 9.1 99080 49
2012-04-10 06:40:28 51°13.635 2°56.015 0.2 20 9.1 99080 49
2012-04-10 06:40:33 51°13.635 2°56.015 0.1 25 9.1 99080 49
2012-04-10 06:40:38 51°13.636 2°56.014 -999 25 9.1 99080 49
2012-04-10 06:40:43 51°13.635 2°56.014 -999 27 9.2 99070 49
2012-04-10 06:40:48 51°13.635 2°56.014 -999 34 9.2 99070 49
2012-04-10 06:40:53 51°13.636 2°56.014 -999 30 9.1 99080 49
2012-04-10 06:40:58 51°13.635 2°56.014 -999 27 9.1 99080 49
2012-04-10 06:41:02 51°13.635 2°56.014 -999 33 9.1 99070 49
2012-04-10 06:41:08 51°13.635 2°56.014 -999 38 9.1 99070 49
2012-04-10 06:41:12 51°13.635 2°56.013 -999 33 9.1 99080 49
2012-04-10 06:41:17 51°13.635 2°56.014 -999 -999 9.1 99080 49
2012-04-10 06:41:22 51°13.635 2°56.014 -999 20 9.2 99080 49
2012-04-10 06:41:27 51°13.635 2°56.014 -999 18 9.2 99080 49
2012-04-10 06:41:32 51°13.635 2°56.014 -999 34 9.1 99080 49
2012-04-10 06:41:37 51°13.635 2°56.014 -999 16 9.1 99080 49
2012-04-10 06:41:42 51°13.635 2°56.015 -999 16 9.2 99080 49
2012-04-10 06:41:48 51°13.635 2°56.014 -999 21 9.2 99080 49
2012-04-10 06:41:53 51°13.635 2°56.014 -999 27 9.2 99070 49
2012-04-10 06:41:58 51°13.635 2°56.014 -999 32 9.2 99070 49
2012-04-10 06:42:03 51°13.635 2°56.014 0.2 24 9.2 99070 49
2012-04-10 06:42:08 51°13.635 2°56.015 3.5 28 9.2 99070 49
2012-04-10 06:42:13 51°13.635 2°56.015 2.4 21 9.2 99080 49
2012-04-10 06:42:18 51°13.635 2°56.014 2 -999 9.2 99080 49
2012-04-10 06:42:23 51°13.635 2°56.015 0.6 31 9.2 99080 48
2012-04-10 06:42:28 51°13.635 2°56.015 0.1 26 9.2 99080 48
2012-04-10 06:42:33 51°13.635 2°56.015 0.4 23 9.2 99070 49
2012-04-10 06:42:38 51°13.635 2°56.016 0.1 11 9.2 99070 49
2012-04-10 06:42:43 51°13.635 2°56.016 0.1 18 9.2 99080 49
2012-04-10 06:42:47 51°13.635 2°56.016 -999 27 9.2 99080 49
2012-04-10 06:42:52 51°13.635 2°56.016 -999 30 9.2 99070 49
2012-04-10 06:42:57 51°13.635 2°56.016 -999 26 9.2 99070 49
2012-04-10 06:43:03 51°13.635 2°56.016 0.1 24 9.1 99070 49
2012-04-10 06:43:07 51°13.635 2°56.016 0.1 28 9.1 99070 49
2012-04-10 06:43:12 51°13.635 2°56.016 -999 36 9.2 99080 49
2012-04-10 06:43:17 51°13.635 2°56.016 -999 37 9.2 99080 49
2012-04-10 06:43:22 51°13.635 2°56.016 -999 24 9.2 99080 49
2012-04-10 06:43:27 51°13.635 2°56.016 -999 25 9.2 99080 49
2012-04-10 06:43:32 51°13.635 2°56.016 -999 16 9.2 99070 49
2012-04-10 06:43:37 51°13.635 2°56.016 -999 11 9.2 99070 49
2012-04-10 06:43:42 51°13.635 2°56.017 -999 14 9.2 99070 49
2012-04-10 06:43:47 51°13.635 2°56.017 -999 19 9.2 99070 49
2012-04-10 06:43:51 51°13.636 2°56.017 -999 15 9.2 99070 49
2012-04-10 06:43:58 51°13.636 2°56.017 -999 15 9.2 99070 49
2012-04-10 06:44:03 51°13.636 2°56.017 -999 15 9.2 99070 49
2012-04-10 06:44:08 51°13.636 2°56.017 -999 15 9.2 99070 49
2012-04-10 06:44:13 51°13.636 2°56.017 -999 15 -999 -999 -999
2012-04-10 06:44:18 51°13.636 2°56.017 -999 15 -999 -999 -999
2012-04-10 06:44:23 51°13.636 2°56.017 -999 -999 -999 -999 -999
2012-04-10 06:44:29 51°13.636 2°56.017 -999 -999 -999 -999 -999
2012-04-10 06:44:33 51°13.636 2°56.017 -999 -999 -999 -999 -999
2012-04-10 06:44:38 51°13.636 2°56.017 -999 11 -999 -999 -999
2012-04-10 06:44:43 51°13.636 2°56.017 -999 25 -999 -999 -999
2012-04-10 06:44:49 51°13.636 2°56.017 -999 12 -999 -999 -999
2012-04-10 06:44:53 51°13.636 2°56.017 -999 15 9.1 -999 27
2012-04-10 06:44:58 51°13.636 2°56.017 0.1 14 9.1 -999 27
2012-04-10 06:45:03 51°13.636 2°56.017 1.6 12 9.2 -999 49
2012-04-10 06:45:08 51°13.636 2°56.016 0.5 19 9.2 -999 49
2012-04-10 06:45:14 51°13.636 2°56.017 0.1 16 9.2 99080 49
2012-04-10 06:45:18 51°13.636 2°56.017 0.1 13 9.2 99080 49
2012-04-10 06:45:23 51°13.636 2°56.016 -999 14 9.2 99080 49
2012-04-10 06:45:28 51°13.636 2°56.015 -999 18 9.2 99080 49
2012-04-10 06:45:33 51°13.636 2°56.015 -999 26 9.2 99080 49
2012-04-10 06:45:38 51°13.636 2°56.015 -999 29 9.2 99080 49
2012-04-10 06:45:43 51°13.636 2°56.015 -999 23 9.2 99080 49
2012-04-10 06:45:48 51°13.636 2°56.015 -999 15 9.2 99080 49
2012-04-10 06:45:53 51°13.636 2°56.016 -999 12 9.2 99080 49
2012-04-10 06:45:58 51°13.636 2°56.016 -999 21 9.2 99080 49
2012-04-10 06:46:03 51°13.636 2°56.016 -999 22 9.2 99080 49
2012-04-10 06:46:08 51°13.637 2°56.017 -999 27 9.2 99080 49
2012-04-10 06:46:14 51°13.637 2°56.017 -999 21 9.2 99080 49
2012-04-10 06:46:18 51°13.637 2°56.017 -999 9 9.2 99080 49
2012-04-10 06:46:23 51°13.637 2°56.017 -999 18 9.1 99080 49
2012-04-10 06:46:29 51°13.637 2°56.017 0.4 16 9.1 99080 49
2012-04-10 06:46:34 51°13.637 2°56.017 0.2 23 9.1 99080 49
2012-04-10 06:46:39 51°13.637 2°56.017 0.1 3 9.1 99080 49
2012-04-10 06:46:44 51°13.637 2°56.017 1.5 13 9.2 99080 49
2012-04-10 06:46:48 51°13.637 2°56.017 0.1 18 9.2 99080 49
2012-04-10 06:46:54 51°13.637 2°56.017 0.1 29 9.2 99080 49
2012-04-10 06:46:59 51°13.637 2°56.017 -999 19 9.2 99080 49
2012-04-10 06:47:04 51°13.637 2°56.017 -999 17 9.2 99080 49
2012-04-10 06:47:08 51°13.637 2°56.017 -999 15 9.2 99080 49
2012-04-10 06:47:14 51°13.638 2°56.017 -999 13 9.2 99080 49
2012-04-10 06:47:19 51°13.638 2°56.017 -999 18 9.2 99080 49
2012-04-10 06:47:24 51°13.638 2°56.017 -999 16 9.2 99080 48
2012-04-10 06:47:28 51°13.638 2°56.017 -999 359 9.2 99080 48
2012-04-10 06:47:34 51°13.638 2°56.017 -999 357 9.2 99080 49
2012-04-10 06:47:39 51°13.638 2°56.017 -999 10 9.2 99080 49
2012-04-10 06:47:44 51°13.638 2°56.017 -999 18 9.2 99080 49
2012-04-10 06:47:48 51°13.638 2°56.017 -999 19 9.2 99080 49
2012-04-10 06:47:54 51°13.638 2°56.017 -999 14 9.2 99080 49
2012-04-10 06:47:59 51°13.638 2°56.017 -999 12 9.2 99080 49
2012-04-10 06:48:04 51°13.638 2°56.017 -999 18 9.2 99080 49
2012-04-10 06:48:08 51°13.638 2°56.017 0.1 19 9.2 99080 49
2012-04-10 06:48:13 51°13.638 2°56.017 0.1 20 9.2 99080 49
2012-04-10 06:48:18 51°13.638 2°56.017 1.6 17 9.2 99080 49
2012-04-10 06:48:23 51°13.638 2°56.017 2.6 27 9.2 99080 48
2012-04-10 06:48:28 51°13.638 2°56.017 0.3 7 9.2 99080 48
2012-04-10 06:48:32 51°13.638 2°56.017 0.1 3 9.2 99090 48
2012-04-10 06:48:38 51°13.638 2°56.017 0.1 20 9.2 99090 48
2012-04-10 06:48:43 51°13.638 2°56.017 -999 8 9.2 99080 48
2012-04-10 06:48:48 51°13.638 2°56.017 0.1 23 9.2 99080 48
2012-04-10 06:48:53 51°13.638 2°56.017 0.1 18 9.2 99080 48
2012-04-10 06:48:58 51°13.638 2°56.017 2.3 11 9.2 99080 48
2012-04-10 06:49:03 51°13.638 2°56.017 0.2 34 9.2 99080 48
2012-04-10 06:49:08 51°13.637 2°56.017 0.1 12 9.2 99080 48
2012-04-10 06:49:13 51°13.637 2°56.017 0.1 27 9.2 99080 48
2012-04-10 06:49:18 51°13.637 2°56.017 0.1 15 9.2 99080 48
2012-04-10 06:49:23 51°13.637 2°56.017 0.1 13 9.2 99080 48
2012-04-10 06:49:28 51°13.637 2°56.017 0.1 10 9.2 99080 48
2012-04-10 06:49:33 51°13.637 2°56.017 0.1 33 9.2 99080 48
2012-04-10 06:49:38 51°13.637 2°56.017 -999 31 9.2 99080 48
2012-04-10 06:49:43 51°13.637 2°56.017 -999 27 9.2 99080 48
2012-04-10 06:49:48 51°13.637 2°56.018 -999 13 9.2 99080 48
2012-04-10 06:49:53 51°13.637 2°56.018 -999 25 9.2 99080 48
2012-04-10 06:49:58 51°13.637 2°56.018 1.4 22 9.2 99080 48
2012-04-10 06:50:03 51°13.638 2°56.018 0.4 39 9.2 99080 47
2012-04-10 06:50:08 51°13.637 2°56.017 0.1 26 9.2 99080 47
2012-04-10 06:50:13 51°13.637 2°56.017 0.4 7 9.2 99080 49
2012-04-10 06:50:18 51°13.637 2°56.017 0.1 11 9.2 99080 49
2012-04-10 06:50:23 51°13.637 2°56.017 0.1 23 9.2 99080 48
2012-04-10 06:50:28 51°13.637 2°56.017 0.1 24 9.2 99080 48
2012-04-10 06:50:33 51°13.637 2°56.017 0.1 17 9.2 99080 49
2012-04-10 06:50:38 51°13.637 2°56.017 -999 16 9.2 99080 49
2012-04-10 06:50:43 51°13.637 2°56.017 -999 8 9.2 99080 48
2012-04-10 06:50:48 51°13.637 2°56.017 -999 24 9.2 99080 48
2012-04-10 06:50:53 51°13.637 2°56.017 -999 10 9.2 99080 48
2012-04-10 06:50:58 51°13.637 2°56.017 0.6 14 9.2 99080 48
2012-04-10 06:51:03 51°13.637 2°56.017 2.8 13 9.2 99080 48
2012-04-10 06:51:08 51°13.637 2°56.017 0.2 21 9.2 99080 48
2012-04-10 06:51:13 51°13.637 2°56.017 0.1 15 9.2 99080 48
2012-04-10 06:51:18 51°13.637 2°56.017 0.1 18 9.2 99080 48
2012-04-10 06:51:23 51°13.636 2°56.017 0.1 19 9.2 99080 49
2012-04-10 06:51:28 51°13.636 2°56.017 -999 18 9.2 99080 49
2012-04-10 06:51:33 51°13.636 2°56.018 -999 17 9.2 99080 48
2012-04-10 06:51:38 51°13.636 2°56.018 -999 24 9.2 99080 48
2012-04-10 06:51:43 51°13.636 2°56.018 -999 27 9.2 99080 48
2012-04-10 06:51:48 51°13.636 2°56.017 0.1 25 9.2 99080 48
2012-04-10 06:51:53 51°13.636 2°56.017 0.1 15 9.2 99080 48
2012-04-10 06:51:59 51°13.636 2°56.017 0.1 15 9.2 99080 48
2012-04-10 06:52:03 51°13.636 2°56.017 -999 14 9.2 99080 48
2012-04-10 06:52:08 51°13.636 2°56.017 -999 17 9.2 99080 48
2012-04-10 06:52:13 51°13.637 2°56.017 -999 22 9.2 99080 48
2012-04-10 06:52:18 51°13.637 2°56.017 -999 20 9.2 99080 48
2012-04-10 06:52:23 51°13.637 2°56.017 -999 27 9.2 99090 48
2012-04-10 06:52:28 51°13.637 2°56.017 -999 24 9.2 99090 48
2012-04-10 06:52:33 51°13.636 2°56.017 -999 21 9.2 99090 48
2012-04-10 06:52:38 51°13.636 2°56.017 -999 13 9.2 99090 48
2012-04-10 06:52:43 51°13.636 2°56.017 -999 10 9.2 99090 47
2012-04-10 06:52:48 51°13.635 2°56.017 -999 31 9.2 99090 47
2012-04-10 06:52:53 51°13.635 2°56.017 -999 31 9.2 99090 48
2012-04-10 06:52:58 51°13.635 2°56.017 -999 39 9.2 99090 48
2012-04-10 06:53:03 51°13.635 2°56.017 -999 19 9.2 99090 48
2012-04-10 06:53:08 51°13.636 2°56.017 -999 14 9.2 99090 48
2012-04-10 06:53:13 51°13.636 2°56.017 -999 19 9.2 99080 48
2012-04-10 06:53:18 51°13.636 2°56.017 -999 18 9.2 99080 48
2012-04-10 06:53:23 51°13.636 2°56.017 -999 21 9.2 99080 48
2012-04-10 06:53:28 51°13.636 2°56.017 -999 21 9.2 99080 48
2012-04-10 06:53:33 51°13.636 2°56.017 -999 22 9.2 99090 48
2012-04-10 06:53:38 51°13.636 2°56.018 -999 33 9.2 99090 48
2012-04-10 06:53:43 51°13.636 2°56.018 -999 31 9.2 99090 48
2012-04-10 06:53:48 51°13.636 2°56.017 -999 25 9.2 99090 48
2012-04-10 06:53:53 51°13.636 2°56.017 -999 19 9.2 99090 48
2012-04-10 06:53:58 51°13.636 2°56.017 0.1 25 9.2 99090 48
2012-04-10 06:54:03 51°13.636 2°56.017 0.1 19 9.2 99090 48
2012-04-10 06:54:08 51°13.636 2°56.017 0.1 14 9.2 99090 48
2012-04-10 06:54:13 51°13.636 2°56.018 -999 17 9.2 99090 48
2012-04-10 06:54:19 51°13.636 2°56.018 -999 26 9.2 99090 48
2012-04-10 06:54:23 51°13.636 2°56.018 1.6 33 9.2 99090 48
2012-04-10 06:54:28 51°13.636 2°56.018 0.2 27 9.2 99090 48
2012-04-10 06:54:33 51°13.636 2°56.018 0.1 23 9.2 99080 48
2012-04-10 06:54:38 51°13.636 2°56.018 1.2 17 9.2 99080 48
2012-04-10 06:54:44 51°13.636 2°56.018 0.3 20 9.2 99090 48
2012-04-10 06:54:48 51°13.636 2°56.018 0.1 30 9.2 99090 48
2012-04-10 06:54:53 51°13.636 2°56.018 1 35 9.2 99090 48
2012-04-10 06:54:58 51°13.636 2°56.018 0.9 26 9.2 99090 48
2012-04-10 06:55:03 51°13.636 2°56.018 1.4 17 9.2 99090 48
2012-04-10 06:55:08 51°13.636 2°56.018 0.5 20 9.2 99090 48
2012-04-10 06:55:13 51°13.636 2°56.018 0.1 32 9.2 99090 47
2012-04-10 06:55:18 51°13.636 2°56.019 0.1 28 9.2 99090 47
2012-04-10 06:55:23 51°13.636 2°56.019 0.1 34 9.2 99090 46
2012-04-10 06:55:28 51°13.636 2°56.019 -999 24 9.2 99090 46
2012-04-10 06:55:33 51°13.636 2°56.018 0.1 355 9.2 99090 48
2012-04-10 06:55:38 51°13.636 2°56.018 3.8 6 9.2 99090 48
2012-04-10 06:55:43 51°13.636 2°56.018 1.7 359 9.2 99090 48
2012-04-10 06:55:48 51°13.635 2°56.018 0.7 359 9.2 99090 48
2012-04-10 06:55:53 51°13.635 2°56.018 0.7 13 9.2 99090 48
2012-04-10 06:55:58 51°13.636 2°56.018 1.7 8 9.2 99090 48
2012-04-10 06:56:03 51°13.636 2°56.018 2 3 9.2 99090 48
2012-04-10 06:56:08 51°13.636 2°56.018 2.7 13 9.2 99090 48
2012-04-10 06:56:13 51°13.636 2°56.019 0.5 14 9.2 99090 47
2012-04-10 06:56:18 51°13.636 2°56.019 0.1 25 9.2 99090 47
2012-04-10 06:56:23 51°13.636 2°56.019 0.1 18 9.2 99090 49
2012-04-10 06:56:28 51°13.636 2°56.019 -999 26 9.2 99090 49
2012-04-10 06:56:33 51°13.636 2°56.019 -999 18 9.2 99080 48
2012-04-10 06:56:38 51°13.636 2°56.019 0.1 11 9.2 99080 48
2012-04-10 06:56:43 51°13.636 2°56.019 0.1 18 9.2 99080 48
2012-04-10 06:56:48 51°13.636 2°56.019 0.1 11 9.2 99080 48
2012-04-10 06:56:53 51°13.636 2°56.019 -999 22 9.2 99090 48
2012-04-10 06:56:58 51°13.636 2°56.019 -999 36 9.2 99090 48
2012-04-10 06:57:04 51°13.636 2°56.019 -999 28 9.2 99090 48
2012-04-10 06:57:08 51°13.636 2°56.019 0.6 29 9.2 99090 48
2012-04-10 06:57:13 51°13.636 2°56.019 2.7 30 9.2 99090 48
2012-04-10 06:57:18 51°13.636 2°56.019 5.7 32 9.2 99090 48
2012-04-10 06:57:23 51°13.636 2°56.019 5.5 31 9.2 99090 48
2012-04-10 06:57:28 51°13.635 2°56.018 3.5 28 9.2 99090 48
2012-04-10 06:57:33 51°13.635 2°56.018 4 23 9.2 99090 46
2012-04-10 06:57:38 51°13.635 2°56.018 2.8 11 9.2 99090 46
2012-04-10 06:57:43 51°13.634 2°56.018 3.2 19 9.2 99090 49
2012-04-10 06:57:48 51°13.634 2°56.018 3.5 17 9.2 99090 49
2012-04-10 06:57:53 51°13.634 2°56.017 4.6 18 9.2 99090 48
2012-04-10 06:57:58 51°13.635 2°56.017 4.9 22 9.2 99090 48
2012-04-10 06:58:03 51°13.635 2°56.017 5.2 12 9.2 99090 45
2012-04-10 06:58:08 51°13.635 2°56.018 4.4 15 9.2 99090 45
2012-04-10 06:58:13 51°13.635 2°56.018 4.1 21 9.2 99090 48
2012-04-10 06:58:18 51°13.635 2°56.018 2.2 22 9.2 99090 48
2012-04-10 06:58:23 51°13.634 2°56.018 2.9 13 9.2 99090 48
2012-04-10 06:58:28 51°13.634 2°56.017 2.4 30 9.2 99090 48
2012-04-10 06:58:33 51°13.634 2°56.018 3.1 41 9.2 99090 48
2012-04-10 06:58:38 51°13.634 2°56.017 2 24 9.2 99090 48
2012-04-10 06:58:43 51°13.634 2°56.017 2 24 9.2 99090 49
2012-04-10 06:58:48 51°13.634 2°56.016 3.6 26 9.2 99090 49
2012-04-10 06:58:53 51°13.635 2°56.013 2.7 33 9.2 99090 46
2012-04-10 06:58:58 51°13.635 2°56.01 3.7 45 9.2 99090 46
2012-04-10 06:59:03 51°13.637 2°56.005 3.1 25 9.2 99090 47
2012-04-10 06:59:08 51°13.638 2°56 3.1 53 9.2 99090 47
2012-04-10 06:59:13 51°13.64 2°55.995 3.2 44 9.2 99090 47
2012-04-10 06:59:18 51°13.641 2°55.989 4.7 33 9.2 99090 47
2012-04-10 06:59:23 51°13.643 2°55.982 4.6 34 9.2 99090 47
2012-04-10 06:59:28 51°13.645 2°55.975 4.7 35 9.2 99090 47
2012-04-10 06:59:33 51°13.647 2°55.968 4.1 37 9.2 99090 49
2012-04-10 06:59:38 51°13.649 2°55.961 5 35 9.2 99090 49
2012-04-10 06:59:43 51°13.65 2°55.953 2.5 40 9.2 99090 47
2012-04-10 06:59:48 51°13.652 2°55.945 3.3 57 9.2 99090 47
2012-04-10 06:59:53 51°13.653 2°55.938 3.7 32 9.2 99090 47
2012-04-10 06:59:58 51°13.655 2°55.932 3.7 33 9.2 99090 47
2012-04-10 07:00:03 51°13.656 2°55.927 3.1 37 9.2 99090 49
2012-04-10 07:00:08 51°13.657 2°55.924 3.1 26 9.2 99090 49
2012-04-10 07:00:13 51°13.658 2°55.921 3.1 25 9.2 99090 46
2012-04-10 07:00:18 51°13.659 2°55.919 3.7 33 9.2 99090 46
2012-04-10 07:00:23 51°13.659 2°55.916 3.2 25 9.2 99090 46
2012-04-10 07:00:28 51°13.66 2°55.912 4.2 25 9.2 99090 46
2012-04-10 07:00:33 51°13.66 2°55.907 3.7 27 9.2 99090 49
2012-04-10 07:00:38 51°13.661 2°55.902 3.6 38 9.2 99090 49
2012-04-10 07:00:43 51°13.662 2°55.896 2.2 37 9.2 99090 47
2012-04-10 07:00:48 51°13.664 2°55.89 2.7 51 9.2 99090 47
2012-04-10 07:00:53 51°13.665 2°55.883 2.8 26 9.2 99090 46
2012-04-10 07:00:58 51°13.666 2°55.877 3.3 38 9.2 99090 46
2012-04-10 07:01:03 51°13.667 2°55.87 6.2 44 9.2 99090 46
2012-04-10 07:01:08 51°13.668 2°55.863 3.5 35 9.2 99090 46
2012-04-10 07:01:13 51°13.67 2°55.856 3.6 35 9.2 99090 48
2012-04-10 07:01:19 51°13.672 2°55.847 5.8 27 9.2 99090 48
2012-04-10 07:01:23 51°13.673 2°55.841 4.4 22 9.2 99090 47
2012-04-10 07:01:28 51°13.675 2°55.833 4.9 31 9.2 99090 47
2012-04-10 07:01:33 51°13.677 2°55.825 4.6 28 9.2 99090 47
2012-04-10 07:01:38 51°13.679 2°55.817 5.1 33 9.2 99090 47
2012-04-10 07:01:43 51°13.682 2°55.81 5 40 9.2 99090 48
2012-04-10 07:01:48 51°13.685 2°55.802 3.8 35 9.2 99090 48
2012-04-10 07:01:53 51°13.689 2°55.794 4 32 9.2 99090 48
2012-04-10 07:01:58 51°13.692 2°55.787 6.5 30 9.2 99090 48
2012-04-10 07:02:03 51°13.696 2°55.779 5.9 32 9.2 99090 46
2012-04-10 07:02:08 51°13.701 2°55.772 5.3 27 9.2 99090 46
2012-04-10 07:02:13 51°13.705 2°55.765 5.5 34 9.2 99090 48
2012-04-10 07:02:18 51°13.71 2°55.757 5.8 27 9.2 99090 48
2012-04-10 07:02:23 51°13.715 2°55.75 5.4 26 9.2 99090 47
2012-04-10 07:02:28 51°13.719 2°55.742 6 33 9.2 99090 47
2012-04-10 07:02:33 51°13.724 2°55.735 5.1 24 9.2 99090 48
2012-04-10 07:02:38 51°13.729 2°55.728 3.9 28 9.2 99090 48
2012-04-10 07:02:43 51°13.735 2°55.721 3.2 33 9.2 99090 46
2012-04-10 07:02:48 51°13.74 2°55.714 2.7 20 9.2 99090 46
2012-04-10 07:02:53 51°13.746 2°55.708 2.5 27 9.2 99090 48
2012-04-10 07:02:58 51°13.752 2°55.702 1.9 27 9.2 99090 48
2012-04-10 07:03:03 51°13.758 2°55.696 1.4 14 9.2 99090 48
2012-04-10 07:03:08 51°13.764 2°55.69 1.5 21 9.2 99090 48
2012-04-10 07:03:13 51°13.77 2°55.685 0.7 13 9.2 99090 47
2012-04-10 07:03:18 51°13.776 2°55.679 0.3 40 9.2 99090 47
2012-04-10 07:03:23 51°13.782 2°55.674 1.1 38 9.2 99090 46
2012-04-10 07:03:28 51°13.789 2°55.669 0.7 41 9.2 99090 46
2012-04-10 07:03:33 51°13.796 2°55.665 2.2 22 9.2 99090 47
2012-04-10 07:03:39 51°13.803 2°55.659 2.5 41 9.2 99090 47
2012-04-10 07:03:43 51°13.809 2°55.655 2 39 9.2 99090 49
2012-04-10 07:03:48 51°13.816 2°55.651 3.5 32 9.2 99090 49
2012-04-10 07:03:53 51°13.823 2°55.646 2.9 28 9.2 99090 48
2012-04-10 07:03:58 51°13.83 2°55.642 3.4 24 9.2 99090 48
2012-04-10 07:04:03 51°13.837 2°55.638 2.9 18 9.2 99090 48
2012-04-10 07:04:08 51°13.843 2°55.634 3.5 8 9.2 99090 48
2012-04-10 07:04:13 51°13.85 2°55.63 3 2 9.2 99090 46
2012-04-10 07:04:18 51°13.857 2°55.626 3.6 17 9.2 99090 46
2012-04-10 07:04:23 51°13.863 2°55.623 2.1 21 9.2 99090 46
2012-04-10 07:04:28 51°13.869 2°55.62 3.6 24 9.2 99090 46
2012-04-10 07:04:33 51°13.876 2°55.617 1.6 28 9.2 99090 48
2012-04-10 07:04:38 51°13.883 2°55.615 3.5 22 9.2 99090 48
2012-04-10 07:04:43 51°13.889 2°55.612 3 10 9.2 99090 48
2012-04-10 07:04:48 51°13.896 2°55.61 0.9 353 9.2 99090 48
2012-04-10 07:04:53 51°13.902 2°55.609 1.5 343 9.2 99090 48
2012-04-10 07:04:58 51°13.908 2°55.607 0.6 353 9.2 99090 48
2012-04-10 07:05:03 51°13.914 2°55.606 0.1 3 9.2 99090 46
2012-04-10 07:05:08 51°13.919 2°55.605 0.7 30 9.2 99090 46
2012-04-10 07:05:13 51°13.925 2°55.605 0.5 42 9.2 99090 46
2012-04-10 07:05:18 51°13.931 2°55.604 0.4 39 9.2 99090 46
2012-04-10 07:05:23 51°13.936 2°55.605 1.6 44 9.2 99090 47
2012-04-10 07:05:28 51°13.941 2°55.605 2.2 7 9.2 99090 47
2012-04-10 07:05:33 51°13.946 2°55.606 3.2 -999 9.2 99090 47
2012-04-10 07:05:38 51°13.951 2°55.607 3.1 352 9.2 99090 47
2012-04-10 07:05:43 51°13.956 2°55.609 1.2 356 9.2 99090 48
2012-04-10 07:05:48 51°13.96 2°55.61 1.7 25 9.2 99090 48
2012-04-10 07:05:53 51°13.965 2°55.611 2 3 9.2 99090 46
2012-04-10 07:05:58 51°13.969 2°55.612 3.5 352 9.2 99090 46
2012-04-10 07:06:03 51°13.973 2°55.614 2.1 337 9.2 99090 47
2012-04-10 07:06:08 51°13.975 2°55.614 2.2 350 9.2 99090 47
2012-04-10 07:06:13 51°13.976 2°55.614 3.6 338 9.2 99090 46
2012-04-10 07:06:18 51°13.976 2°55.613 4.3 325 9.2 99090 46
2012-04-10 07:06:24 51°13.976 2°55.61 5.4 319 9.2 99090 47
2012-04-10 07:06:28 51°13.975 2°55.607 5.1 307 9.2 99090 47
2012-04-10 07:06:33 51°13.975 2°55.603 5.5 23 9.2 99090 48
2012-04-10 07:06:38 51°13.975 2°55.599 6 308 9.2 99090 48
2012-04-10 07:06:43 51°13.975 2°55.594 5.1 25 9.2 99090 46
2012-04-10 07:06:48 51°13.976 2°55.589 3.8 303 9.2 99090 46
2012-04-10 07:06:53 51°13.976 2°55.582 4 316 9.2 99090 46
2012-04-10 07:06:58 51°13.977 2°55.575 3.6 307 9.2 99090 46
2012-04-10 07:07:03 51°13.979 2°55.568 5.1 21 9.3 99090 46
2012-04-10 07:07:08 51°13.982 2°55.56 4.2 305 9.3 99090 46
2012-04-10 07:07:13 51°13.985 2°55.554 4.5 20 9.3 99090 46
2012-04-10 07:07:18 51°13.988 2°55.547 3.4 305 9.3 99090 46
2012-04-10 07:07:23 51°13.992 2°55.541 3.8 20 9.2 99090 46
2012-04-10 07:07:28 51°13.997 2°55.536 2.6 307 9.2 99090 46
2012-04-10 07:07:33 51°14.002 2°55.53 4.3 26 9.3 99090 47
2012-04-10 07:07:38 51°14.007 2°55.525 4.5 309 9.3 99090 47
2012-04-10 07:07:43 51°14.013 2°55.52 4.1 23 9.3 99090 47
2012-04-10 07:07:48 51°14.019 2°55.514 4.3 306 9.3 99090 47
2012-04-10 07:07:53 51°14.025 2°55.508 3.3 20 9.3 99100 47
2012-04-10 07:07:58 51°14.032 2°55.502 2.8 305 9.3 99100 47
2012-04-10 07:08:03 51°14.039 2°55.496 2.2 20 9.3 99100 48
2012-04-10 07:08:08 51°14.047 2°55.49 3 303 9.3 99100 48
2012-04-10 07:08:13 51°14.055 2°55.483 2.5 21 9.3 99100 47
2012-04-10 07:08:18 51°14.063 2°55.476 4.3 309 9.3 99100 47
2012-04-10 07:08:23 51°14.072 2°55.469 5 20 9.3 99100 47
2012-04-10 07:08:28 51°14.08 2°55.461 5.1 308 9.3 99100 47
2012-04-10 07:08:33 51°14.089 2°55.454 5.7 21 9.3 99100 46
2012-04-10 07:08:38 51°14.098 2°55.447 5 302 9.3 99100 46
2012-04-10 07:08:43 51°14.108 2°55.439 4.9 246 9.3 99100 45
2012-04-10 07:08:48 51°14.117 2°55.431 2.6 302 9.3 99100 45
2012-04-10 07:08:53 51°14.126 2°55.423 4.3 316 9.3 99090 46
2012-04-10 07:08:58 51°14.136 2°55.414 3 305 9.3 99090 46
2012-04-10 07:09:03 51°14.145 2°55.406 3.4 315 9.3 99090 47
2012-04-10 07:09:08 51°14.155 2°55.397 3.9 321 9.3 99090 47
2012-04-10 07:09:13 51°14.165 2°55.388 4.1 323 9.3 99100 46
2012-04-10 07:09:18 51°14.174 2°55.378 6.2 309 9.3 99100 46
2012-04-10 07:09:23 51°14.184 2°55.369 4.9 27 9.3 99100 48
2012-04-10 07:09:28 51°14.194 2°55.361 3.8 305 9.3 99100 48
2012-04-10 07:09:33 51°14.204 2°55.352 2.3 18 9.3 99100 46
2012-04-10 07:09:38 51°14.214 2°55.343 4.5 309 9.3 99100 46
2012-04-10 07:09:43 51°14.224 2°55.334 7.4 26 9.3 99100 48
2012-04-10 07:09:48 51°14.234 2°55.325 7 305 9.3 99100 48
2012-04-10 07:09:53 51°14.244 2°55.316 5.6 20 9.3 99090 46
2012-04-10 07:09:59 51°14.256 2°55.305 5.6 305 9.3 99090 46
2012-04-10 07:10:03 51°14.265 2°55.298 6.9 19 9.3 99100 46
2012-04-10 07:10:08 51°14.275 2°55.29 6.5 303 9.3 99100 46
2012-04-10 07:10:13 51°14.285 2°55.281 6.7 22 9.3 99100 47
2012-04-10 07:10:18 51°14.296 2°55.272 6.6 309 9.3 99100 47
2012-04-10 07:10:23 51°14.307 2°55.263 5.9 20 9.3 99100 47
2012-04-10 07:10:28 51°14.318 2°55.254 5.4 309 9.3 99100 47
2012-04-10 07:10:33 51°14.329 2°55.245 7.1 21 9.3 99090 47
2012-04-10 07:10:38 51°14.339 2°55.234 6.6 307 9.3 99090 47
2012-04-10 07:10:43 51°14.35 2°55.224 7.4 245 9.3 99090 48
2012-04-10 07:10:48 51°14.36 2°55.214 5.9 308 9.3 99090 48
2012-04-10 07:10:53 51°14.371 2°55.203 6.6 249 9.3 99100 48
2012-04-10 07:10:58 51°14.382 2°55.193 8.9 308 9.3 99100 48
2012-04-10 07:11:03 51°14.393 2°55.183 6.4 25 9.3 99100 46
2012-04-10 07:11:08 51°14.405 2°55.173 8.2 310 9.3 99100 46
2012-04-10 07:11:13 51°14.416 2°55.162 7.9 248 9.3 99100 47
2012-04-10 07:11:18 51°14.427 2°55.15 7.2 311 9.3 99100 47
2012-04-10 07:11:23 51°14.439 2°55.139 6.4 24 9.3 99090 45
2012-04-10 07:11:28 51°14.451 2°55.128 7.9 304 9.3 99090 45
2012-04-10 07:11:33 51°14.463 2°55.117 7.2 20 9.3 99090 47
2012-04-10 07:11:38 51°14.475 2°55.106 8 307 9.3 99090 47
2012-04-10 07:11:43 51°14.487 2°55.094 7.3 246 9.3 99110 47
2012-04-10 07:11:48 51°14.499 2°55.083 8.2 311 9.3 99110 47
2012-04-10 07:11:52 51°14.508 2°55.074 7.3 21 9.3 99090 47
2012-04-10 07:11:58 51°14.523 2°55.059 9.2 306 9.3 99090 47
2012-04-10 07:12:02 51°14.532 2°55.049 9.1 244 9.3 99090 47
2012-04-10 07:12:07 51°14.544 2°55.037 10 310 9.3 99090 47
2012-04-10 07:12:12 51°14.556 2°55.023 8.3 24 9.3 99090 47
2012-04-10 07:12:17 51°14.568 2°55.01 9.3 308 9.3 99090 47
2012-04-10 07:12:21 51°14.577 2°54.998 8.5 24 9.3 99090 47
2012-04-10 07:12:26 51°14.589 2°54.982 9.7 311 9.3 99090 47
2012-04-10 07:12:31 51°14.6 2°54.966 8.2 25 9.3 99090 47
2012-04-10 07:12:36 51°14.61 2°54.948 11.9 309 9.3 99090 47
2012-04-10 07:12:40 51°14.618 2°54.933 11.8 20 9.3 99100 47
2012-04-10 07:12:45 51°14.628 2°54.913 11 309 9.3 99100 47
2012-04-10 07:12:50 51°14.637 2°54.893 11.4 25 9.3 99090 47
2012-04-10 07:12:55 51°14.645 2°54.871 12.4 306 9.3 99090 47
2012-04-10 07:13:00 51°14.653 2°54.849 10.3 27 9.3 99090 47
2012-04-10 07:13:05 51°14.659 2°54.825 10.1 305 9.3 99090 47
2012-04-10 07:13:10 51°14.665 2°54.801 11.7 23 9.3 99090 47
2012-04-10 07:13:15 51°14.67 2°54.775 11.5 306 9.3 99090 47
2012-04-10 07:13:20 51°14.673 2°54.749 13.5 26 9.3 99090 46
2012-04-10 07:13:25 51°14.675 2°54.723 13 306 9.3 99090 46
2012-04-10 07:13:30 51°14.676 2°54.696 11.9 26 9.3 99080 46
2012-04-10 07:13:35 51°14.676 2°54.67 13.2 307 9.3 99080 46
2012-04-10 07:13:40 51°14.673 2°54.644 12.8 320 9.3 99070 47
2012-04-10 07:13:44 51°14.67 2°54.623 12.8 323 9.3 99070 47
2012-04-10 07:13:50 51°14.664 2°54.593 12.8 324 9.3 99060 47
2012-04-10 07:13:55 51°14.657 2°54.569 13.7 326 9.3 99060 47
2012-04-10 07:14:00 51°14.649 2°54.546 12.1 325 9.3 99070 45
2012-04-10 07:14:05 51°14.641 2°54.523 11.4 328 9.3 99070 45
2012-04-10 07:14:10 51°14.631 2°54.5 13.3 328 9.3 99060 47
2012-04-10 07:14:15 51°14.621 2°54.478 13.8 302 9.3 99060 47
2012-04-10 07:14:20 51°14.61 2°54.457 10.4 330 9.3 99070 47
2012-04-10 07:14:24 51°14.601 2°54.44 14.7 330 9.3 99070 47
2012-04-10 07:14:30 51°14.588 2°54.414 11 329 9.3 99070 47
2012-04-10 07:14:35 51°14.577 2°54.392 12.7 328 9.3 99070 47
2012-04-10 07:14:40 51°14.566 2°54.369 15.1 328 9.3 99080 47
2012-04-10 07:14:45 51°14.556 2°54.345 11.5 326 9.3 99080 47
2012-04-10 07:14:50 51°14.546 2°54.322 14.7 327 9.3 99090 47
2012-04-10 07:14:55 51°14.537 2°54.297 15.8 325 9.3 99090 47
2012-04-10 07:15:00 51°14.528 2°54.273 15.4 326 9.3 99090 47
2012-04-10 07:15:05 51°14.519 2°54.248 13.1 325 9.3 99090 47
2012-04-10 07:15:10 51°14.51 2°54.223 11.4 326 9.3 99080 48
2012-04-10 07:15:15 51°14.502 2°54.198 15.3 326 9.3 99080 48
2012-04-10 07:15:20 51°14.493 2°54.173 12.2 327 9.3 99080 47
2012-04-10 07:15:25 51°14.485 2°54.148 12.4 303 9.3 99080 47
2012-04-10 07:15:30 51°14.476 2°54.123 13.9 327 9.3 99080 47
2012-04-10 07:15:35 51°14.467 2°54.098 11.5 326 9.3 99080 47
2012-04-10 07:15:40 51°14.458 2°54.074 11.9 327 9.3 99080 48
2012-04-10 07:15:45 51°14.448 2°54.05 11.8 328 9.3 99080 48
2012-04-10 07:15:50 51°14.438 2°54.026 12.8 327 9.3 99080 47
2012-04-10 07:15:55 51°14.428 2°54.003 13.9 328 9.3 99080 47
2012-04-10 07:16:00 51°14.418 2°53.979 11.7 328 9.3 99080 47
2012-04-10 07:16:05 51°14.407 2°53.956 14.9 327 9.3 99080 47
2012-04-10 07:16:10 51°14.397 2°53.933 13.7 328 9.3 99090 47
2012-04-10 07:16:15 51°14.386 2°53.909 12.3 328 9.3 99090 47
2012-04-10 07:16:20 51°14.376 2°53.887 14.3 329 9.3 99080 47
2012-04-10 07:16:24 51°14.367 2°53.869 11.6 327 9.3 99080 47
2012-04-10 07:16:30 51°14.353 2°53.842 15.9 330 9.3 99100 47
2012-04-10 07:16:35 51°14.343 2°53.82 13.3 329 9.3 99100 47
2012-04-10 07:16:40 51°14.331 2°53.798 11.5 329 9.3 99080 47
2012-04-10 07:16:45 51°14.32 2°53.776 14.9 329 9.3 99080 47
2012-04-10 07:16:50 51°14.309 2°53.754 15.9 329 9.3 99090 48
2012-04-10 07:16:55 51°14.298 2°53.731 15.6 327 9.3 99090 48
2012-04-10 07:17:00 51°14.287 2°53.709 13.8 328 9.3 99090 48
2012-04-10 07:17:05 51°14.276 2°53.686 16.5 328 9.3 99090 48
2012-04-10 07:17:10 51°14.265 2°53.664 11.2 329 9.3 99090 47
2012-04-10 07:17:15 51°14.254 2°53.64 12.3 329 9.3 99090 47
2012-04-10 07:17:20 51°14.244 2°53.617 13.5 328 9.3 99090 48
2012-04-10 07:17:25 51°14.234 2°53.594 11.4 327 9.3 99090 48
2012-04-10 07:17:30 51°14.224 2°53.57 12.1 327 9.3 99090 47
2012-04-10 07:17:35 51°14.214 2°53.547 10.4 329 9.3 99090 47
2012-04-10 07:17:40 51°14.205 2°53.523 14.4 328 9.3 99090 48
2012-04-10 07:17:45 51°14.195 2°53.5 11.3 325 9.3 99090 48
2012-04-10 07:17:50 51°14.185 2°53.476 12.8 328 9.3 99090 48
2012-04-10 07:17:55 51°14.175 2°53.453 14.1 302 9.3 99090 48
2012-04-10 07:18:00 51°14.165 2°53.429 13.2 328 9.3 99090 48
2012-04-10 07:18:05 51°14.155 2°53.406 11.9 327 9.3 99090 48
2012-04-10 07:18:10 51°14.145 2°53.383 6.7 327 9.3 99090 47
2012-04-10 07:18:15 51°14.135 2°53.36 15.2 327 9.3 99090 47
2012-04-10 07:18:20 51°14.124 2°53.337 12.6 326 9.3 99080 47
2012-04-10 07:18:24 51°14.116 2°53.319 13 328 9.3 99080 47
2012-04-10 07:18:30 51°14.104 2°53.292 15.6 329 9.3 99080 47
2012-04-10 07:18:35 51°14.093 2°53.269 12.5 327 9.3 99080 47
2012-04-10 07:18:40 51°14.082 2°53.248 14 329 9.3 99080 48
2012-04-10 07:18:44 51°14.073 2°53.231 12.3 330 9.3 99080 48
2012-04-10 07:18:50 51°14.06 2°53.204 11.5 328 9.3 99090 48
2012-04-10 07:18:55 51°14.049 2°53.182 13.1 329 9.3 99090 48
2012-04-10 07:19:00 51°14.038 2°53.16 13.5 329 9.3 99080 48
2012-04-10 07:19:05 51°14.027 2°53.138 14.1 329 9.3 99080 48
2012-04-10 07:19:10 51°14.016 2°53.116 17.2 328 9.2 99080 48
2012-04-10 07:19:15 51°14.006 2°53.094 10.9 304 9.2 99080 48
2012-04-10 07:19:20 51°13.995 2°53.071 15 327 9.3 99100 47
2012-04-10 07:19:24 51°13.987 2°53.053 13.6 302 9.3 99100 47
2012-04-10 07:19:30 51°13.975 2°53.025 13.8 329 9.3 99090 47
2012-04-10 07:19:35 51°13.965 2°53.003 16.1 327 9.3 99090 47
2012-04-10 07:19:40 51°13.955 2°52.979 13.3 328 9.2 99090 48
2012-04-10 07:19:45 51°13.946 2°52.956 16.4 327 9.2 99090 48
2012-04-10 07:19:50 51°13.936 2°52.933 16 327 9.3 99090 47
2012-04-10 07:19:55 51°13.926 2°52.91 14.6 303 9.3 99090 47
2012-04-10 07:20:00 51°13.917 2°52.886 13 327 9.2 99090 47
2012-04-10 07:20:05 51°13.907 2°52.863 12.9 328 9.2 99090 47
2012-04-10 07:20:10 51°13.898 2°52.839 17.3 327 9.2 99090 48
2012-04-10 07:20:15 51°13.888 2°52.816 10.7 327 9.2 99090 48
2012-04-10 07:20:20 51°13.878 2°52.793 16.2 329 9.2 99090 47
2012-04-10 07:20:24 51°13.87 2°52.775 10.7 328 9.2 99090 47
2012-04-10 07:20:30 51°13.858 2°52.747 12.6 328 9.2 99080 48
2012-04-10 07:20:35 51°13.848 2°52.725 13.5 328 9.2 99080 48
2012-04-10 07:20:40 51°13.838 2°52.701 12.2 328 9.2 99080 48
2012-04-10 07:20:44 51°13.829 2°52.684 10.8 329 9.2 99080 48
2012-04-10 07:20:50 51°13.816 2°52.657 15.4 328 9.2 99090 48
2012-04-10 07:20:55 51°13.806 2°52.634 17.2 329 9.2 99090 48
2012-04-10 07:21:00 51°13.795 2°52.612 14.2 330 9.2 99090 47
2012-04-10 07:21:04 51°13.787 2°52.595 11.6 329 9.2 99090 47
2012-04-10 07:21:10 51°13.774 2°52.569 15.7 329 9.2 99080 47
2012-04-10 07:21:15 51°13.763 2°52.547 11.4 330 9.2 99080 47
2012-04-10 07:21:20 51°13.751 2°52.525 10.4 330 9.2 99090 48
2012-04-10 07:21:25 51°13.74 2°52.504 13.3 329 9.2 99090 48
2012-04-10 07:21:30 51°13.729 2°52.482 13.8 327 9.2 99090 48
2012-04-10 07:21:35 51°13.719 2°52.46 11.3 328 9.2 99090 48
2012-04-10 07:21:40 51°13.708 2°52.438 15.2 328 9.3 99080 48
2012-04-10 07:21:44 51°13.699 2°52.421 13.1 330 9.3 99080 48
2012-04-10 07:21:50 51°13.686 2°52.395 12.8 330 9.3 99100 47
2012-04-10 07:21:55 51°13.675 2°52.372 16.4 328 9.3 99100 47
2012-04-10 07:22:00 51°13.665 2°52.35 16 328 9.3 99090 47
2012-04-10 07:22:05 51°13.654 2°52.328 11.5 330 9.3 99090 47
2012-04-10 07:22:10 51°13.644 2°52.305 13.1 330 9.2 99090 48
2012-04-10 07:22:15 51°13.633 2°52.283 13 329 9.2 99090 48
2012-04-10 07:22:20 51°13.623 2°52.261 10.4 329 9.2 99100 48
2012-04-10 07:22:25 51°13.612 2°52.238 12.7 327 9.2 99100 48
2012-04-10 07:22:30 51°13.602 2°52.215 10.4 329 9.2 99100 47
2012-04-10 07:22:35 51°13.592 2°52.192 13.3 328 9.2 99100 47
2012-04-10 07:22:40 51°13.582 2°52.169 13.9 328 9.2 99100 48
2012-04-10 07:22:44 51°13.574 2°52.151 16.3 328 9.2 99100 48
2012-04-10 07:22:50 51°13.562 2°52.123 14.1 328 9.2 99100 48
2012-04-10 07:22:55 51°13.552 2°52.1 16.9 328 9.2 99100 48
2012-04-10 07:23:00 51°13.542 2°52.076 12.8 327 9.2 99100 48
2012-04-10 07:23:04 51°13.535 2°52.058 12.2 327 9.2 99100 48
2012-04-10 07:23:10 51°13.523 2°52.029 12.4 326 9.2 99090 48
2012-04-10 07:23:15 51°13.513 2°52.006 11.6 328 9.2 99090 48
2012-04-10 07:23:20 51°13.503 2°51.983 15.7 327 9.2 99090 48
2012-04-10 07:23:25 51°13.493 2°51.96 12.1 329 9.2 99090 48
2012-04-10 07:23:30 51°13.483 2°51.938 6.9 328 9.2 99080 48
2012-04-10 07:23:35 51°13.473 2°51.915 13.4 329 9.2 99080 48
2012-04-10 07:23:40 51°13.462 2°51.893 12.6 330 9.2 99080 48
2012-04-10 07:23:44 51°13.453 2°51.876 17.1 330 9.2 99080 48
2012-04-10 07:23:50 51°13.44 2°51.849 11.4 331 9.2 99090 48
2012-04-10 07:23:55 51°13.429 2°51.828 20.1 330 9.2 99090 48
2012-04-10 07:24:00 51°13.418 2°51.806 12.2 330 9.2 99090 48
2012-04-10 07:24:05 51°13.407 2°51.784 14.4 329 9.2 99090 48
2012-04-10 07:24:10 51°13.396 2°51.763 11.9 330 9.2 99090 48
2012-04-10 07:24:15 51°13.385 2°51.741 14.6 331 9.2 99090 48
2012-04-10 07:24:20 51°13.374 2°51.719 12.9 330 9.2 99090 48
2012-04-10 07:24:25 51°13.364 2°51.698 13.3 328 9.2 99090 48
2012-04-10 07:24:30 51°13.353 2°51.675 12.2 328 9.2 99090 48
2012-04-10 07:24:35 51°13.343 2°51.653 12.8 329 9.2 99090 48
2012-04-10 07:24:40 51°13.333 2°51.63 12.7 325 9.2 99100 47
2012-04-10 07:24:45 51°13.323 2°51.608 14.3 328 9.2 99100 47
2012-04-10 07:24:50 51°13.313 2°51.585 11.3 329 9.2 99100 47
2012-04-10 07:24:55 51°13.303 2°51.562 12 327 9.2 99100 47
2012-04-10 07:25:00 51°13.293 2°51.539 11 328 9.2 99090 48
2012-04-10 07:25:04 51°13.285 2°51.521 11.5 326 9.2 99090 48
2012-04-10 07:25:10 51°13.273 2°51.493 13.2 328 9.2 99090 48
2012-04-10 07:25:15 51°13.263 2°51.47 14.1 329 9.2 99090 48
2012-04-10 07:25:20 51°13.254 2°51.447 12.4 327 9.2 99090 47
2012-04-10 07:25:25 51°13.243 2°51.425 11.4 329 9.2 99090 47
2012-04-10 07:25:30 51°13.233 2°51.402 15.8 329 9.2 99090 48
2012-04-10 07:25:35 51°13.222 2°51.38 12.2 328 9.2 99090 48
2012-04-10 07:25:40 51°13.211 2°51.359 12.2 330 9.2 99090 47
2012-04-10 07:25:44 51°13.203 2°51.341 10.9 331 9.2 99090 47
2012-04-10 07:25:50 51°13.19 2°51.315 15 329 9.2 99100 47
2012-04-10 07:25:55 51°13.179 2°51.293 12.4 330 9.2 99100 47
2012-04-10 07:26:00 51°13.169 2°51.27 10.9 326 9.2 99090 48
2012-04-10 07:26:05 51°13.158 2°51.248 13.9 329 9.2 99090 48
2012-04-10 07:26:10 51°13.148 2°51.225 10.5 327 9.2 99090 47
2012-04-10 07:26:15 51°13.138 2°51.202 12.7 327 9.2 99090 47
2012-04-10 07:26:20 51°13.128 2°51.179 11.2 328 9.2 99100 47
2012-04-10 07:26:25 51°13.118 2°51.156 13 328 9.2 99100 47
2012-04-10 07:26:30 51°13.109 2°51.133 11 327 9.2 99100 48
2012-04-10 07:26:35 51°13.1 2°51.109 14.3 327 9.2 99100 48
2012-04-10 07:26:40 51°13.09 2°51.086 13.4 327 9.2 99090 47
2012-04-10 07:26:45 51°13.081 2°51.062 11.6 328 9.2 99090 47
2012-04-10 07:26:50 51°13.071 2°51.038 11.3 327 9.2 99090 48
2012-04-10 07:26:55 51°13.061 2°51.015 13.7 328 9.2 99090 48
2012-04-10 07:27:00 51°13.051 2°50.992 12.3 328 9.2 99090 48
2012-04-10 07:27:04 51°13.043 2°50.974 13.9 329 9.2 99090 48
2012-04-10 07:27:10 51°13.032 2°50.946 10.7 329 9.2 99090 49
2012-04-10 07:27:15 51°13.022 2°50.923 17.7 330 9.2 99090 49
2012-04-10 07:27:20 51°13.012 2°50.899 12.1 330 9.2 99090 47
2012-04-10 07:27:24 51°13.004 2°50.881 14.3 328 9.2 99090 47
2012-04-10 07:27:30 51°12.992 2°50.853 11.6 328 9.2 99080 48
2012-04-10 07:27:35 51°12.982 2°50.83 11.9 329 9.2 99080 48
2012-04-10 07:27:40 51°12.972 2°50.807 12.6 325 9.2 99090 48
2012-04-10 07:27:45 51°12.963 2°50.784 16.7 329 9.2 99090 48
2012-04-10 07:27:50 51°12.952 2°50.761 15.3 328 9.2 99090 48
2012-04-10 07:27:55 51°12.942 2°50.738 13.6 329 9.2 99090 48
2012-04-10 07:28:00 51°12.932 2°50.716 11.3 329 9.2 99090 48
2012-04-10 07:28:04 51°12.924 2°50.697 11.6 303 9.2 99090 48
2012-04-10 07:28:10 51°12.912 2°50.67 10.8 326 9.2 99090 47
2012-04-10 07:28:15 51°12.903 2°50.646 13.1 327 9.2 99090 47
2012-04-10 07:28:20 51°12.894 2°50.622 12.6 327 9.2 99090 48
2012-04-10 07:28:25 51°12.885 2°50.598 12.2 326 9.2 99090 48
2012-04-10 07:28:30 51°12.877 2°50.573 12.5 326 9.2 99100 48
2012-04-10 07:28:35 51°12.869 2°50.549 15.9 327 9.2 99100 48
2012-04-10 07:28:40 51°12.861 2°50.523 15 328 9.2 99090 48
2012-04-10 07:28:45 51°12.853 2°50.499 10.9 329 9.2 99090 48
2012-04-10 07:28:50 51°12.845 2°50.474 14.3 326 9.2 99100 48
2012-04-10 07:28:55 51°12.837 2°50.448 11.1 302 9.2 99100 48
2012-04-10 07:29:00 51°12.83 2°50.423 10.3 325 9.2 99090 48
2012-04-10 07:29:05 51°12.822 2°50.398 14.1 326 9.2 99090 48
2012-04-10 07:29:10 51°12.814 2°50.373 13 326 9.2 99090 47
2012-04-10 07:29:15 51°12.807 2°50.348 13.5 328 9.2 99090 47
2012-04-10 07:29:20 51°12.799 2°50.323 11.5 326 9.2 99100 47
2012-04-10 07:29:25 51°12.791 2°50.298 13.3 326 9.2 99100 47
2012-04-10 07:29:30 51°12.783 2°50.273 12.7 325 9.2 99090 48
2012-04-10 07:29:35 51°12.775 2°50.248 10.6 329 9.2 99090 48
2012-04-10 07:29:40 51°12.766 2°50.224 12.1 329 9.2 99090 47
2012-04-10 07:29:44 51°12.759 2°50.205 12.2 328 9.2 99090 47
2012-04-10 07:29:50 51°12.748 2°50.177 13.3 328 9.2 99090 47
2012-04-10 07:29:55 51°12.738 2°50.154 12.9 330 9.2 99090 47
2012-04-10 07:30:00 51°12.729 2°50.13 11.7 329 9.2 99090 46
2012-04-10 07:30:05 51°12.72 2°50.106 10.9 328 9.2 99090 46
2012-04-10 07:30:10 51°12.71 2°50.083 12.9 327 9.2 99100 48
2012-04-10 07:30:15 51°12.701 2°50.059 13.6 330 9.2 99100 48
2012-04-10 07:30:20 51°12.692 2°50.035 11.4 326 9.2 99100 48
2012-04-10 07:30:24 51°12.684 2°50.016 14.4 329 9.2 99100 48
2012-04-10 07:30:30 51°12.674 2°49.987 13.6 329 9.2 99100 48
2012-04-10 07:30:35 51°12.665 2°49.962 15.6 328 9.2 99100 48
2012-04-10 07:30:40 51°12.657 2°49.938 12.7 326 9.2 99100 48
2012-04-10 07:30:45 51°12.649 2°49.914 14.2 328 9.2 99100 48
2012-04-10 07:30:50 51°12.641 2°49.889 11.1 327 9.2 99090 48
2012-04-10 07:30:55 51°12.633 2°49.864 12.2 327 9.2 99090 48
2012-04-10 07:31:00 51°12.625 2°49.839 6.8 327 9.2 99100 49
2012-04-10 07:31:05 51°12.617 2°49.814 16.3 327 9.2 99100 49
2012-04-10 07:31:10 51°12.609 2°49.789 10.3 326 9.2 99100 47
2012-04-10 07:31:15 51°12.6 2°49.765 13 326 9.2 99100 47
2012-04-10 07:31:20 51°12.592 2°49.74 12.9 326 9.2 99100 48
2012-04-10 07:31:25 51°12.584 2°49.715 15.5 329 9.2 99100 48
2012-04-10 07:31:30 51°12.576 2°49.691 10.8 328 9.2 99100 48
2012-04-10 07:31:35 51°12.568 2°49.666 12.4 327 9.2 99100 48
2012-04-10 07:31:40 51°12.56 2°49.641 14.2 327 9.2 99090 48
2012-04-10 07:31:45 51°12.552 2°49.617 11.6 328 9.2 99090 48
2012-04-10 07:31:50 51°12.543 2°49.592 10.8 328 9.2 99100 48
2012-04-10 07:31:55 51°12.535 2°49.567 10.9 327 9.2 99100 48
2012-04-10 07:32:00 51°12.527 2°49.543 13.9 329 9.2 99100 48
2012-04-10 07:32:04 51°12.52 2°49.523 13.1 328 9.2 99100 48
2012-04-10 07:32:10 51°12.51 2°49.494 11.3 328 9.2 99100 48
2012-04-10 07:32:15 51°12.502 2°49.469 13.7 283 9.2 99100 48
2012-04-10 07:32:20 51°12.493 2°49.445 11.6 327 9.2 99090 48
2012-04-10 07:32:25 51°12.484 2°49.421 14.8 328 9.2 99090 48
2012-04-10 07:32:30 51°12.475 2°49.397 7.3 328 9.2 99100 47
2012-04-10 07:32:35 51°12.466 2°49.373 12.2 329 9.2 99100 47
2012-04-10 07:32:40 51°12.457 2°49.349 16.6 328 9.2 99090 46
2012-04-10 07:32:45 51°12.447 2°49.326 12.1 329 9.2 99090 46
2012-04-10 07:32:50 51°12.438 2°49.302 13.1 330 9.2 99100 48
2012-04-10 07:32:55 51°12.428 2°49.278 11.8 329 9.2 99100 48
2012-04-10 07:33:00 51°12.419 2°49.255 11 329 9.2 99100 48
2012-04-10 07:33:05 51°12.409 2°49.231 15.1 329 9.2 99100 48
2012-04-10 07:33:10 51°12.399 2°49.208 13.6 327 9.2 99100 47
2012-04-10 07:33:15 51°12.39 2°49.184 6.7 330 9.2 99100 47
2012-04-10 07:33:20 51°12.381 2°49.161 16.7 329 9.3 99110 47
2012-04-10 07:33:25 51°12.371 2°49.137 10.5 329 9.3 99110 47
2012-04-10 07:33:30 51°12.362 2°49.114 12.1 329 9.3 99110 48
2012-04-10 07:33:35 51°12.353 2°49.09 15.9 329 9.3 99110 48
2012-04-10 07:33:40 51°12.344 2°49.066 5 329 9.3 99100 48
2012-04-10 07:33:45 51°12.334 2°49.042 10.3 330 9.3 99100 48
2012-04-10 07:33:50 51°12.325 2°49.018 14.2 328 9.3 99100 48
2012-04-10 07:33:55 51°12.316 2°48.995 10.6 328 9.3 99100 48
2012-04-10 07:34:00 51°12.307 2°48.97 11.8 329 9.3 99110 48
2012-04-10 07:34:04 51°12.301 2°48.951 12.5 330 9.3 99110 48
2012-04-10 07:34:10 51°12.291 2°48.92 14 327 9.3 99090 47
2012-04-10 07:34:15 51°12.284 2°48.895 11 327 9.3 99090 47
2012-04-10 07:34:20 51°12.277 2°48.869 14.4 327 9.2 99100 48
2012-04-10 07:34:24 51°12.271 2°48.849 10.9 327 9.2 99100 48
2012-04-10 07:34:30 51°12.263 2°48.818 12.8 327 9.3 99100 48
2012-04-10 07:34:35 51°12.256 2°48.792 15.2 326 9.3 99100 48
2012-04-10 07:34:40 51°12.249 2°48.766 12.5 327 9.3 99110 48
2012-04-10 07:34:45 51°12.242 2°48.74 10.8 327 9.3 99110 48
2012-04-10 07:34:50 51°12.235 2°48.715 10.5 327 9.3 99100 48
2012-04-10 07:34:55 51°12.228 2°48.689 13.5 327 9.3 99100 48
2012-04-10 07:35:00 51°12.221 2°48.663 11.3 329 9.2 99100 48
2012-04-10 07:35:04 51°12.216 2°48.642 13.1 327 9.2 99100 48
2012-04-10 07:35:10 51°12.207 2°48.611 12.4 328 9.2 99110 47
2012-04-10 07:35:15 51°12.2 2°48.585 6.6 327 9.2 99110 47
2012-04-10 07:35:20 51°12.193 2°48.56 12.9 327 9.3 99110 47
2012-04-10 07:35:25 51°12.186 2°48.534 15.2 329 9.3 99110 47
2012-04-10 07:35:30 51°12.179 2°48.508 10.8 328 9.2 99100 48
2012-04-10 07:35:35 51°12.172 2°48.482 14.5 328 9.2 99100 48
2012-04-10 07:35:40 51°12.165 2°48.456 13.9 329 9.2 99110 48
2012-04-10 07:35:45 51°12.157 2°48.431 13.9 329 9.2 99110 48
2012-04-10 07:35:50 51°12.15 2°48.405 11.5 330 9.2 99100 48
2012-04-10 07:35:55 51°12.143 2°48.379 13.7 329 9.2 99100 48
2012-04-10 07:36:00 51°12.135 2°48.353 11.7 331 9.3 99100 48
2012-04-10 07:36:05 51°12.127 2°48.328 14.4 330 9.3 99100 48
2012-04-10 07:36:10 51°12.119 2°48.302 10 329 9.3 99100 48
2012-04-10 07:36:15 51°12.112 2°48.276 13.4 330 9.3 99100 48
2012-04-10 07:36:20 51°12.104 2°48.251 11.4 330 9.3 99100 49
2012-04-10 07:36:24 51°12.098 2°48.23 13.2 330 9.3 99100 49
2012-04-10 07:36:30 51°12.089 2°48.2 10.9 331 9.3 99100 48
2012-04-10 07:36:35 51°12.081 2°48.174 13.2 331 9.3 99100 48
2012-04-10 07:36:40 51°12.073 2°48.148 15.3 332 9.2 99110 48
2012-04-10 07:36:45 51°12.065 2°48.122 14.1 330 9.2 99110 48
2012-04-10 07:36:50 51°12.057 2°48.097 15.6 331 9.3 99110 48
2012-04-10 07:36:55 51°12.049 2°48.071 11.5 330 9.3 99110 48
2012-04-10 07:37:00 51°12.041 2°48.046 11.4 332 9.2 99110 47
2012-04-10 07:37:05 51°12.033 2°48.02 13.4 330 9.2 99110 47
2012-04-10 07:37:10 51°12.025 2°47.995 6.5 331 9.2 99110 48
2012-04-10 07:37:15 51°12.017 2°47.969 12.5 330 9.2 99110 48
2012-04-10 07:37:20 51°12.009 2°47.943 10.7 332 9.2 99110 48
2012-04-10 07:37:25 51°12.001 2°47.918 13.4 330 9.2 99110 48
2012-04-10 07:37:30 51°11.994 2°47.892 11 329 9.2 99110 48
2012-04-10 07:37:35 51°11.986 2°47.866 14.4 328 9.2 99110 48
2012-04-10 07:37:40 51°11.979 2°47.84 14.1 330 9.2 99110 47
2012-04-10 07:37:45 51°11.972 2°47.813 12.4 329 9.2 99110 47
2012-04-10 07:37:50 51°11.964 2°47.787 15.3 332 9.2 99110 48
2012-04-10 07:37:55 51°11.957 2°47.761 13.2 331 9.2 99110 48
2012-04-10 07:38:00 51°11.95 2°47.735 14.3 330 9.2 99100 47
2012-04-10 07:38:05 51°11.942 2°47.709 19.8 331 9.2 99100 47
2012-04-10 07:38:10 51°11.935 2°47.682 15.3 330 9.2 99090 47
2012-04-10 07:38:15 51°11.928 2°47.656 12.9 328 9.2 99090 47
2012-04-10 07:38:20 51°11.921 2°47.63 13.8 328 9.2 99100 47
2012-04-10 07:38:24 51°11.916 2°47.609 15.7 327 9.2 99100 47
2012-04-10 07:38:30 51°11.908 2°47.577 13.9 326 9.2 99100 47
2012-04-10 07:38:35 51°11.901 2°47.55 11.4 325 9.2 99100 47
2012-04-10 07:38:40 51°11.895 2°47.523 14.4 326 9.2 99110 48
2012-04-10 07:38:44 51°11.89 2°47.501 10.3 327 9.2 99110 48
2012-04-10 07:38:50 51°11.883 2°47.469 12.2 328 9.2 99080 48
2012-04-10 07:38:55 51°11.877 2°47.442 10.9 330 9.2 99080 48
2012-04-10 07:39:00 51°11.871 2°47.415 13.3 327 9.2 99080 47
2012-04-10 07:39:05 51°11.864 2°47.388 10.9 328 9.2 99080 47
2012-04-10 07:39:10 51°11.858 2°47.361 13.4 329 9.2 99100 47
2012-04-10 07:39:15 51°11.851 2°47.334 12.7 287 9.2 99100 47
2012-04-10 07:39:20 51°11.845 2°47.307 9.9 327 9.2 99090 47
2012-04-10 07:39:25 51°11.839 2°47.279 14 325 9.2 99090 47
2012-04-10 07:39:30 51°11.833 2°47.252 12.4 326 9.2 99090 48
2012-04-10 07:39:35 51°11.826 2°47.225 10.6 326 9.2 99090 48
2012-04-10 07:39:40 51°11.82 2°47.198 11.3 327 9.2 99090 48
2012-04-10 07:39:45 51°11.813 2°47.171 12.3 326 9.2 99090 48
2012-04-10 07:39:50 51°11.807 2°47.144 10.5 326 9.2 99090 47
2012-04-10 07:39:55 51°11.8 2°47.117 11.8 303 9.2 99090 47
2012-04-10 07:40:00 51°11.793 2°47.091 14.8 327 9.3 99090 48
2012-04-10 07:40:05 51°11.786 2°47.064 13.9 328 9.3 99090 48
2012-04-10 07:40:10 51°11.779 2°47.037 13.8 326 9.3 99080 48
2012-04-10 07:40:15 51°11.772 2°47.011 15 327 9.3 99080 48
2012-04-10 07:40:20 51°11.765 2°46.984 10.6 328 9.3 99090 48
2012-04-10 07:40:25 51°11.757 2°46.958 12.8 326 9.3 99090 48
2012-04-10 07:40:30 51°11.75 2°46.932 14.4 327 9.3 99090 47
2012-04-10 07:40:35 51°11.742 2°46.905 11.9 329 9.3 99090 47
2012-04-10 07:40:40 51°11.735 2°46.879 12 329 9.3 99100 47
2012-04-10 07:40:45 51°11.727 2°46.853 13.6 330 9.3 99100 47
2012-04-10 07:40:50 51°11.719 2°46.827 15.3 330 9.3 99100 48
2012-04-10 07:40:55 51°11.712 2°46.801 12.2 328 9.3 99100 48
2012-04-10 07:41:00 51°11.704 2°46.775 11.1 328 9.3 99100 48
2012-04-10 07:41:04 51°11.699 2°46.754 14.4 328 9.3 99100 48
2012-04-10 07:41:10 51°11.69 2°46.722 10.9 328 9.3 99090 47
2012-04-10 07:41:15 51°11.682 2°46.696 14.8 280 9.3 99090 47
2012-04-10 07:41:20 51°11.675 2°46.669 13.9 328 9.3 99100 48
2012-04-10 07:41:25 51°11.668 2°46.643 17.3 326 9.3 99100 48
2012-04-10 07:41:30 51°11.661 2°46.616 16.7 327 9.3 99090 48
2012-04-10 07:41:35 51°11.654 2°46.589 10.5 328 9.3 99090 48
2012-04-10 07:41:40 51°11.648 2°46.562 14.7 327 9.3 99100 48
2012-04-10 07:41:45 51°11.641 2°46.535 14.3 327 9.3 99100 48
2012-04-10 07:41:50 51°11.635 2°46.508 10.6 327 9.3 99100 48
2012-04-10 07:41:55 51°11.629 2°46.48 14.1 327 9.3 99100 48
2012-04-10 07:42:00 51°11.623 2°46.453 13.2 328 9.3 99100 48
2012-04-10 07:42:05 51°11.617 2°46.426 12.4 327 9.3 99100 48
2012-04-10 07:42:10 51°11.61 2°46.398 13.2 329 9.3 99100 49
2012-04-10 07:42:15 51°11.604 2°46.371 11.7 330 9.3 99100 49
2012-04-10 07:42:20 51°11.598 2°46.344 10.3 330 9.3 99090 49
2012-04-10 07:42:25 51°11.59 2°46.318 10.7 330 9.3 99090 49
2012-04-10 07:42:30 51°11.583 2°46.292 13.8 329 9.3 99100 48
2012-04-10 07:42:35 51°11.575 2°46.266 13.1 331 9.3 99100 48
2012-04-10 07:42:40 51°11.568 2°46.239 13.1 329 9.3 99100 47
2012-04-10 07:42:45 51°11.56 2°46.213 14.2 330 9.3 99100 47
2012-04-10 07:42:50 51°11.553 2°46.186 10.7 328 9.3 99100 48
2012-04-10 07:42:55 51°11.546 2°46.16 12.1 329 9.3 99100 48
2012-04-10 07:43:00 51°11.539 2°46.133 12 328 9.2 99100 48
2012-04-10 07:43:04 51°11.533 2°46.112 11.3 329 9.2 99100 48
2012-04-10 07:43:10 51°11.525 2°46.079 10.8 329 9.2 99110 48
2012-04-10 07:43:15 51°11.519 2°46.052 11.2 283 9.2 99110 48
2012-04-10 07:43:20 51°11.513 2°46.025 14.3 327 9.2 99110 48
2012-04-10 07:43:25 51°11.507 2°45.997 14.9 327 9.2 99110 48
2012-04-10 07:43:30 51°11.501 2°45.97 14.7 328 9.3 99100 49
2012-04-10 07:43:35 51°11.495 2°45.943 11.9 303 9.3 99100 49
2012-04-10 07:43:40 51°11.488 2°45.916 14.3 328 9.3 99110 49
2012-04-10 07:43:44 51°11.484 2°45.894 13.4 330 9.3 99110 49
2012-04-10 07:43:50 51°11.476 2°45.861 15 328 9.2 99110 49
2012-04-10 07:43:55 51°11.47 2°45.834 14.2 328 9.2 99110 49
2012-04-10 07:44:00 51°11.464 2°45.807 15.8 328 9.2 99100 49
2012-04-10 07:44:05 51°11.458 2°45.78 11.4 328 9.2 99100 49
2012-04-10 07:44:10 51°11.452 2°45.753 10.8 329 9.2 99100 49
2012-04-10 07:44:15 51°11.446 2°45.726 10.8 327 9.2 99100 49
2012-04-10 07:44:20 51°11.439 2°45.698 11.9 329 9.2 99100 48
2012-04-10 07:44:25 51°11.433 2°45.671 11.2 328 9.2 99100 48
2012-04-10 07:44:30 51°11.427 2°45.644 11.3 330 9.2 99110 49
2012-04-10 07:44:35 51°11.421 2°45.617 14.1 327 9.2 99110 49
2012-04-10 07:44:40 51°11.415 2°45.589 11.1 328 9.2 99110 49
2012-04-10 07:44:45 51°11.409 2°45.562 14.4 327 9.2 99110 49
2012-04-10 07:44:50 51°11.403 2°45.535 11.5 328 9.2 99110 48
2012-04-10 07:44:55 51°11.396 2°45.508 14.2 330 9.2 99110 48
2012-04-10 07:45:00 51°11.39 2°45.481 15.1 329 9.2 99110 48
2012-04-10 07:45:05 51°11.383 2°45.454 15.3 330 9.2 99110 48
2012-04-10 07:45:10 51°11.376 2°45.428 11.1 331 9.2 99110 49
2012-04-10 07:45:15 51°11.369 2°45.401 11.9 286 9.2 99110 49
2012-04-10 07:45:20 51°11.361 2°45.375 15.5 329 9.2 99110 48
2012-04-10 07:45:24 51°11.355 2°45.353 14.1 331 9.2 99110 48
2012-04-10 07:45:30 51°11.346 2°45.322 16.2 330 9.2 99120 48
2012-04-10 07:45:35 51°11.338 2°45.296 16.3 332 9.2 99120 48
2012-04-10 07:45:40 51°11.33 2°45.27 12.7 330 9.2 99130 49
2012-04-10 07:45:44 51°11.324 2°45.249 13.4 333 9.2 99130 49
2012-04-10 07:45:50 51°11.314 2°45.218 10.5 333 9.2 99120 49
2012-04-10 07:45:55 51°11.306 2°45.193 13.4 333 9.2 99120 49
2012-04-10 07:46:00 51°11.298 2°45.166 14 329 9.2 99120 47
2012-04-10 07:46:05 51°11.29 2°45.141 7.7 331 9.2 99120 47
2012-04-10 07:46:10 51°11.282 2°45.115 16.5 330 9.1 99120 48
2012-04-10 07:46:15 51°11.274 2°45.089 7.6 332 9.1 99120 48
2012-04-10 07:46:20 51°11.266 2°45.063 17.2 329 9.1 99120 48
2012-04-10 07:46:24 51°11.26 2°45.042 15.7 331 9.1 99120 48
2012-04-10 07:46:30 51°11.252 2°45.01 14.9 330 9.1 99120 47
2012-04-10 07:46:35 51°11.244 2°44.984 17.4 330 9.1 99120 47
2012-04-10 07:46:40 51°11.238 2°44.957 19.6 329 9.1 99120 47
2012-04-10 07:46:45 51°11.232 2°44.93 13.4 328 9.1 99120 47
2012-04-10 07:46:50 51°11.226 2°44.903 15.5 329 9.1 99120 47
2012-04-10 07:46:55 51°11.22 2°44.875 14.5 326 9.1 99120 47
2012-04-10 07:47:00 51°11.215 2°44.847 13.3 326 9.1 99110 47
2012-04-10 07:47:05 51°11.21 2°44.819 12.5 327 9.1 99110 47
2012-04-10 07:47:10 51°11.205 2°44.792 18.7 325 9.1 99110 47
2012-04-10 07:47:15 51°11.201 2°44.764 14.5 282 9.1 99110 47
2012-04-10 07:47:20 51°11.196 2°44.736 6.6 327 9.1 99110 47
2012-04-10 07:47:25 51°11.192 2°44.707 17 325 9.1 99110 47
2012-04-10 07:47:30 51°11.187 2°44.679 15.8 327 9.1 99110 47
2012-04-10 07:47:35 51°11.182 2°44.651 14.4 327 9.1 99110 47
2012-04-10 07:47:40 51°11.178 2°44.624 7 329 9.1 99110 46
2012-04-10 07:47:44 51°11.174 2°44.601 16.1 330 9.1 99110 46
2012-04-10 07:47:50 51°11.168 2°44.568 17.1 328 9.1 99100 47
2012-04-10 07:47:55 51°11.162 2°44.541 21.1 330 9.1 99100 47
2012-04-10 07:48:00 51°11.157 2°44.513 17.5 328 9.1 99100 46
2012-04-10 07:48:05 51°11.15 2°44.486 20.8 329 9.1 99100 46
2012-04-10 07:48:10 51°11.144 2°44.459 8.2 327 9.1 99100 46
2012-04-10 07:48:15 51°11.138 2°44.432 14.6 283 9.1 99100 46
2012-04-10 07:48:20 51°11.131 2°44.405 16.3 330 9.1 99090 45
2012-04-10 07:48:24 51°11.125 2°44.384 13.7 327 9.1 99090 45
2012-04-10 07:48:30 51°11.117 2°44.352 14 328 9.1 99110 45
2012-04-10 07:48:35 51°11.11 2°44.326 16.2 331 9.1 99110 45
2012-04-10 07:48:40 51°11.103 2°44.299 13 328 9.1 99100 45
2012-04-10 07:48:45 51°11.097 2°44.272 8.4 328 9.1 99100 45
2012-04-10 07:48:50 51°11.091 2°44.245 18.8 327 9.1 99100 45
2012-04-10 07:48:55 51°11.085 2°44.218 17.9 328 9.1 99100 45
2012-04-10 07:49:00 51°11.079 2°44.19 8.1 328 9.2 99090 45
2012-04-10 07:49:05 51°11.073 2°44.163 12.5 329 9.2 99090 45
2012-04-10 07:49:10 51°11.066 2°44.137 7.3 329 9.2 99100 45
2012-04-10 07:49:15 51°11.06 2°44.109 21.5 326 9.2 99100 45
2012-04-10 07:49:20 51°11.054 2°44.082 16.8 327 9.2 99100 44
2012-04-10 07:49:25 51°11.048 2°44.055 14.2 327 9.2 99100 44
2012-04-10 07:49:30 51°11.043 2°44.027 18.7 327 9.2 99090 44
2012-04-10 07:49:35 51°11.038 2°44 17.2 326 9.2 99090 44
2012-04-10 07:49:40 51°11.033 2°43.972 18.1 326 9.2 99100 45
2012-04-10 07:49:45 51°11.029 2°43.944 17.8 328 9.2 99100 45
2012-04-10 07:49:50 51°11.024 2°43.916 12.9 325 9.2 99100 45
2012-04-10 07:49:55 51°11.019 2°43.888 14.9 327 9.2 99100 45
2012-04-10 07:50:00 51°11.015 2°43.86 18.6 328 9.2 99100 44
2012-04-10 07:50:05 51°11.01 2°43.832 13.8 326 9.2 99100 44
2012-04-10 07:50:10 51°11.006 2°43.804 7.9 328 9.2 99090 45
2012-04-10 07:50:15 51°11.001 2°43.776 19.7 280 9.2 99090 45
2012-04-10 07:50:20 51°10.996 2°43.748 15.3 327 9.2 99100 45
2012-04-10 07:50:24 51°10.992 2°43.726 13.8 328 9.2 99100 45
2012-04-10 07:50:30 51°10.987 2°43.692 12.9 329 9.2 99100 45
2012-04-10 07:50:35 51°10.981 2°43.665 13.4 330 9.2 99100 45
2012-04-10 07:50:40 51°10.975 2°43.638 13.3 328 9.2 99100 44
2012-04-10 07:50:45 51°10.97 2°43.611 17.8 328 9.2 99100 44
2012-04-10 07:50:50 51°10.963 2°43.584 20.4 332 9.2 99100 45
2012-04-10 07:50:55 51°10.956 2°43.557 7.4 330 9.2 99100 45
2012-04-10 07:51:00 51°10.95 2°43.531 16.3 331 9.2 99100 44
2012-04-10 07:51:05 51°10.942 2°43.505 19.8 330 9.2 99100 44
2012-04-10 07:51:10 51°10.935 2°43.478 7.2 331 9.2 99100 44
2012-04-10 07:51:15 51°10.928 2°43.452 7.6 329 9.2 99100 44
2012-04-10 07:51:20 51°10.921 2°43.425 7.7 333 9.2 99110 43
2012-04-10 07:51:25 51°10.914 2°43.398 10.3 330 9.2 99110 43
2012-04-10 07:51:30 51°10.907 2°43.371 13.1 330 9.2 99110 44
2012-04-10 07:51:35 51°10.901 2°43.344 8.8 329 9.2 99110 44
2012-04-10 07:51:40 51°10.895 2°43.317 16.2 327 9.2 99120 43
2012-04-10 07:51:45 51°10.89 2°43.289 13.7 328 9.2 99120 43
2012-04-10 07:51:50 51°10.884 2°43.262 14.5 329 9.2 99120 44
2012-04-10 07:51:55 51°10.879 2°43.234 16.8 329 9.2 99120 44
2012-04-10 07:52:00 51°10.874 2°43.206 14.9 327 9.2 99120 44
2012-04-10 07:52:04 51°10.87 2°43.184 16.2 326 9.2 99120 44
2012-04-10 07:52:10 51°10.865 2°43.15 15.1 328 9.2 99100 43
2012-04-10 07:52:15 51°10.86 2°43.122 14.7 280 9.2 99100 43
2012-04-10 07:52:20 51°10.855 2°43.094 17.9 327 9.2 99100 43
2012-04-10 07:52:24 51°10.852 2°43.072 19.4 327 9.2 99100 43
2012-04-10 07:52:30 51°10.846 2°43.038 17.7 328 9.2 99110 43
2012-04-10 07:52:35 51°10.841 2°43.011 13.4 328 9.2 99110 43
2012-04-10 07:52:40 51°10.836 2°42.983 7.3 326 9.2 99100 43
2012-04-10 07:52:45 51°10.831 2°42.955 6.8 327 9.2 99100 43
2012-04-10 07:52:50 51°10.826 2°42.927 12.3 326 9.2 99110 44
2012-04-10 07:52:55 51°10.821 2°42.9 14.1 327 9.2 99110 44
2012-04-10 07:53:00 51°10.816 2°42.872 16.5 328 9.2 99110 43
2012-04-10 07:53:04 51°10.811 2°42.85 12.3 327 9.2 99110 43
2012-04-10 07:53:10 51°10.805 2°42.817 7.1 327 9.2 99110 43
2012-04-10 07:53:15 51°10.799 2°42.79 13 329 9.2 99110 43
2012-04-10 07:53:20 51°10.792 2°42.763 16.1 329 9.2 99100 44
2012-04-10 07:53:25 51°10.786 2°42.736 12.7 330 9.2 99100 44
2012-04-10 07:53:30 51°10.779 2°42.709 13.6 329 9.2 99110 43
2012-04-10 07:53:35 51°10.773 2°42.682 7.6 329 9.2 99110 43
2012-04-10 07:53:40 51°10.766 2°42.655 17.1 329 9.2 99100 43
2012-04-10 07:53:44 51°10.761 2°42.633 7.6 329 9.2 99100 43
2012-04-10 07:53:50 51°10.753 2°42.601 11.6 329 9.2 99120 44
2012-04-10 07:53:55 51°10.747 2°42.574 14 328 9.2 99120 44
2012-04-10 07:54:00 51°10.741 2°42.546 13.5 328 9.2 99120 43
2012-04-10 07:54:05 51°10.735 2°42.519 17.1 330 9.2 99120 43
2012-04-10 07:54:10 51°10.729 2°42.492 16.8 329 9.2 99110 44
2012-04-10 07:54:15 51°10.723 2°42.464 13.4 280 9.2 99110 44
2012-04-10 07:54:20 51°10.718 2°42.437 14.5 328 9.2 99110 44
2012-04-10 07:54:24 51°10.713 2°42.415 14.3 328 9.2 99110 44
2012-04-10 07:54:30 51°10.707 2°42.381 12.5 329 9.2 99110 44
2012-04-10 07:54:35 51°10.702 2°42.354 11.4 328 9.2 99110 44
2012-04-10 07:54:40 51°10.697 2°42.326 17.3 327 9.2 99110 44
2012-04-10 07:54:44 51°10.692 2°42.304 13.5 328 9.2 99110 44
2012-04-10 07:54:50 51°10.686 2°42.27 12.9 329 9.2 99110 44
2012-04-10 07:54:55 51°10.68 2°42.243 16.9 328 9.2 99110 44
2012-04-10 07:55:00 51°10.675 2°42.215 13.9 329 9.2 99120 45
2012-04-10 07:55:05 51°10.669 2°42.188 13.8 302 9.2 99120 45
2012-04-10 07:55:10 51°10.664 2°42.161 18.1 327 9.3 99100 45
2012-04-10 07:55:15 51°10.658 2°42.133 12.8 328 9.3 99100 45
2012-04-10 07:55:20 51°10.652 2°42.106 15.3 328 9.3 99110 44
2012-04-10 07:55:25 51°10.647 2°42.078 7.9 328 9.3 99110 44
2012-04-10 07:55:30 51°10.641 2°42.051 15.6 327 9.3 99120 44
2012-04-10 07:55:35 51°10.635 2°42.024 18.6 330 9.3 99120 44
2012-04-10 07:55:40 51°10.628 2°41.997 8.6 329 9.2 99110 44
2012-04-10 07:55:45 51°10.622 2°41.969 12.6 328 9.2 99110 44
2012-04-10 07:55:50 51°10.615 2°41.943 18.8 330 9.3 99110 44
2012-04-10 07:55:55 51°10.608 2°41.915 12.3 328 9.3 99110 44
2012-04-10 07:56:00 51°10.602 2°41.889 19.9 329 9.3 99110 45
2012-04-10 07:56:05 51°10.595 2°41.862 13.3 329 9.3 99110 45
2012-04-10 07:56:10 51°10.589 2°41.835 10.7 329 9.3 99120 44
2012-04-10 07:56:15 51°10.583 2°41.807 18.6 283 9.3 99120 44
2012-04-10 07:56:20 51°10.576 2°41.78 19.9 330 9.2 99120 45
2012-04-10 07:56:25 51°10.57 2°41.753 12.3 331 9.2 99120 45
2012-04-10 07:56:30 51°10.565 2°41.725 16.4 328 9.3 99120 45
2012-04-10 07:56:35 51°10.559 2°41.698 12.5 330 9.3 99120 45
2012-04-10 07:56:40 51°10.554 2°41.67 12 328 9.3 99120 43
2012-04-10 07:56:45 51°10.549 2°41.642 11 328 9.3 99120 43
2012-04-10 07:56:50 51°10.544 2°41.614 13.3 330 9.2 99120 44
2012-04-10 07:56:55 51°10.539 2°41.587 13 328 9.2 99120 44
2012-04-10 07:57:00 51°10.534 2°41.559 8.1 329 9.2 99120 45
2012-04-10 07:57:05 51°10.529 2°41.531 11.2 301 9.2 99120 45
2012-04-10 07:57:10 51°10.524 2°41.503 17.3 328 9.2 99120 46
2012-04-10 07:57:15 51°10.519 2°41.475 13.7 301 9.2 99120 46
2012-04-10 07:57:20 51°10.514 2°41.447 14.4 329 9.3 99120 45
2012-04-10 07:57:24 51°10.511 2°41.425 12.4 328 9.3 99120 45
2012-04-10 07:57:30 51°10.504 2°41.392 15.7 330 9.3 99120 45
2012-04-10 07:57:35 51°10.499 2°41.365 14.8 329 9.3 99120 45
2012-04-10 07:57:40 51°10.493 2°41.337 14 330 9.2 99120 46
2012-04-10 07:57:45 51°10.487 2°41.31 6.4 330 9.2 99120 46
2012-04-10 07:57:50 51°10.481 2°41.283 19 332 9.2 99120 45
2012-04-10 07:57:55 51°10.474 2°41.256 15.3 330 9.2 99120 45
2012-04-10 07:58:00 51°10.467 2°41.229 18.8 330 9.2 99120 46
2012-04-10 07:58:05 51°10.46 2°41.202 16.9 331 9.2 99120 46
2012-04-10 07:58:10 51°10.453 2°41.175 13 330 9.2 99120 46
2012-04-10 07:58:15 51°10.446 2°41.148 7.5 280 9.2 99120 46
2012-04-10 07:58:20 51°10.439 2°41.122 16.9 330 9.2 99140 46
2012-04-10 07:58:25 51°10.431 2°41.096 17.8 331 9.2 99140 46
2012-04-10 07:58:30 51°10.425 2°41.069 14.4 328 9.2 99130 46
2012-04-10 07:58:35 51°10.418 2°41.042 11.3 329 9.2 99130 46
2012-04-10 07:58:40 51°10.412 2°41.015 19.4 329 9.2 99130 45
2012-04-10 07:58:44 51°10.407 2°40.994 14 329 9.2 99130 45
2012-04-10 07:58:50 51°10.4 2°40.96 17.1 329 9.2 99120 46
2012-04-10 07:58:55 51°10.395 2°40.933 12.7 327 9.2 99120 46
2012-04-10 07:59:00 51°10.39 2°40.905 14.1 329 9.2 99120 45
2012-04-10 07:59:05 51°10.386 2°40.877 11.6 327 9.2 99120 45
2012-04-10 07:59:10 51°10.381 2°40.849 16 326 9.2 99120 45
2012-04-10 07:59:15 51°10.376 2°40.821 15.5 328 9.2 99120 45
2012-04-10 07:59:20 51°10.371 2°40.793 12 330 9.2 99120 44
2012-04-10 07:59:24 51°10.368 2°40.771 16 330 9.2 99120 44
2012-04-10 07:59:30 51°10.361 2°40.738 18.2 328 9.2 99120 45